Orbital Elements at Epoch 2459200.5 (2020-Dec-17.0) TDB
Reference: JPL 21 (heliocentric ecliptic J2000)
Element | Value | Uncertainty (1-sigma) | Units |
e | .4975281833140032 | 5.0864e-08 | |
a | 3.698083526172273 | 1.4077e-08 | au |
q | 1.858182747652339 | 1.916e-07 | au |
i | 19.26445249818969 | 6.5066e-06 | deg |
node | 53.75902110510706 | 1.3707e-05 | deg |
peri | 67.56567537464413 | 1.5343e-05 | deg |
M | 34.53147414863496 | 5.3924e-06 | deg |
tp | 2458951.341264020867 (2020-Apr-11.84126402) | 3.8056e-05 | TDB |
period | 2597.547517560402 7.11 | 1.4831e-05 4.061e-08 | d yr |
n | .1385922673468971 | 7.9132e-10 | deg/d |
Q | 5.537984304692207 | 2.108e-08 | au |
|
| | Orbit Determination Parameters
Additional Information
|